Theta_e
311 310 304 306 307 308 308 310 310 310 311 311 312 313 313 312 313 315 320 315 312 313 314 316 319 320 320 315 316 314 312 314 319 317 316 313 314 315 316 316 315 314 314 315 316
310 308 304 304 307 308 308 309 311 310 311 311 312 312 312 312 313 318 317 310 311 314 312 315 315 314 315 314 314 312 310 315 315 314 314 314 314 316 315 315 315 314 314 315 316
311 310 306 305 305 308 309 308 311 311 311 311 311 311 311 311 315 318 311 310 313 311 312 313 315 313 315 316 316 313 313 314 315 313 314 314 315 315 315 315 314 313 313 314 315
312 311 310 306 308 309 310 309 310 312 311 311 311 311 311 314 318 314 310 312 312 313 313 316 312 313 314 315 314 314 313 314 314 314 314 315 314 315 314 314 313 312 313 314 314
313 312 312 310 308 308 307 308 308 311 312 312 312 311 311 312 315 315 311 314 314 315 315 315 311 310 311 312 313 314 314 315 314 311 312 313 314 314 313 313 312 312 314 313 312
311 312 312 312 310 308 307 309 309 310 312 312 312 312 314 315 316 312 312 314 314 315 314 312 312 312 310 312 312 313 314 313 312 313 313 313 314 315 313 313 313 314 314 312 314
306 308 310 311 311 310 308 309 308 310 312 312 312 313 315 312 315 315 314 314 314 314 314 315 313 311 311 311 312 313 314 310 311 312 312 312 314 314 313 313 314 314 313 315 316
299 301 305 309 311 311 309 308 309 311 312 312 312 314 312 315 318 315 314 314 314 315 315 315 315 311 312 311 311 313 311 311 310 310 311 312 311 313 312 312 314 314 315 317 317
299 300 301 306 309 311 311 308 311 312 312 312 313 315 314 317 313 314 314 313 315 315 315 315 314 311 312 311 309 310 309 310 311 310 313 312 312 313 313 313 314 314 315 318 316
299 299 300 302 307 309 311 309 310 314 314 313 315 312 312 315 314 314 314 315 314 313 313 314 310 312 309 308 311 312 311 313 316 315 314 313 312 312 312 313 313 314 315 317 316
298 299 300 302 305 309 312 312 312 313 315 315 315 312 314 316 315 314 314 314 314 313 312 312 311 312 313 311 311 314 314 313 313 314 316 312 312 312 313 314 315 314 314 315 315
298 299 299 301 303 314 313 311 314 313 310 312 314 314 315 316 317 314 314 313 313 312 312 312 313 314 314 314 314 314 314 313 313 315 317 315 314 313 314 314 314 313 315 315 315
298 299 300 301 305 315 313 315 315 315 314 315 314 314 315 316 317 314 314 313 314 313 313 313 315 315 316 315 316 315 314 314 314 316 315 315 315 314 315 315 314 314 315 316 316
299 300 300 301 310 308 315 316 317 315 315 318 317 316 314 316 316 315 315 314 314 314 313 312 312 314 314 316 315 315 313 315 316 315 316 314 315 314 314 314 315 314 315 315 314
299 300 300 303 307 311 313 317 316 316 315 320 317 317 314 315 316 315 315 314 314 315 314 312 311 313 314 315 314 313 315 314 315 314 314 314 313 312 315 317 315 315 316 314 313
300 301 302 307 305 310 316 317 314 318 322 322 317 316 314 314 316 316 315 314 313 313 312 310 311 313 315 315 314 315 314 314 314 311 314 313 313 315 318 319 316 316 315 314 313
300 301 306 309 307 312 314 312 312 317 317 319 318 316 315 315 315 317 317 315 313 313 312 313 313 312 315 315 314 312 312 314 321 320 318 319 317 316 319 320 316 317 315 314 313
301 301 309 310 312 313 313 311 316 315 317 317 315 315 316 317 316 317 317 316 313 312 312 314 315 315 314 313 312 311 312 317 326 324 325 320 323 319 320 317 317 316 315 314 313
300 301 309 304 308 315 310 314 314 316 316 315 315 316 316 316 316 315 314 315 315 312 313 314 315 315 317 315 314 314 314 314 319 320 319 319 319 323 321 319 318 317 316 316 314
300 305 308 304 307 313 313 316 315 315 315 315 315 316 316 314 315 315 316 316 315 315 313 315 316 316 317 315 315 315 317 322 317 324 323 320 318 321 323 321 320 319 317 315 314
303 303 306 303 306 303 313 314 315 314 313 311 311 312 314 316 317 316 316 316 317 317 314 315 315 317 317 316 315 314 314 317 319 318 323 320 319 320 320 320 319 316 315 313 313
300 297 300 303 302 302 304 308 309 310 311 311 312 312 313 310 317 318 318 318 317 317 316 313 314 316 317 317 315 314 313 315 318 320 318 318 318 318 318 317 316 316 316 315 312
297 298 303 302 300 300 303 307 308 309 307 307 308 307 306 308 315 318 318 318 318 318 316 313 312 312 315 315 318 318 316 315 315 314 318 319 319 319 317 316 315 315 315 314 311
297 300 297 298 300 304 304 305 307 306 306 305 304 305 305 305 311 316 316 316 317 318 325 321 312 313 317 316 316 320 320 317 317 317 319 320 320 320 319 318 317 316 313 313 310
297 299 301 300 302 302 302 303 304 304 305 303 303 304 304 304 304 305 315 315 315 317 314 313 316 316 316 316 320 320 320 318 319 319 320 320 319 319 320 320 319 315 314 313 311
299 299 297 299 300 301 302 302 303 303 304 304 303 303 303 303 305 310 315 314 315 314 314 314 319 317 318 319 321 320 317 317 316 317 318 320 321 316 316 315 317 316 315 313 312
299 298 296 298 299 300 300 301 302 302 302 302 302 303 304 304 306 307 307 310 312 312 312 313 318 315 319 318 319 321 317 316 315 314 316 317 316 316 318 318 316 314 313 312 311
Wind_Speed
34 28 16 12 13 14 14 13 11 6 6 5 4 6 12 18 15 6 4 4 4 4 8 10 9 9 3 3 3 4 4 0 1 4 2 3 5 3 2 4 6 5 7 7 12
36 35 23 15 13 14 15 14 10 7 6 5 5 7 13 20 16 6 6 6 4 4 6 6 6 11 1 3 3 5 4 5 3 6 2 2 5 3 3 4 4 5 5 12 14
35 35 29 20 15 15 15 15 12 8 6 6 7 10 15 19 4 4 4 4 5 6 8 10 9 2 4 2 3 4 5 5 2 6 4 2 3 1 3 0 4 7 5 6 9
33 33 32 24 18 16 16 15 13 9 7 7 8 11 16 5 2 3 4 8 2 7 10 8 5 2 1 2 5 5 5 5 6 5 4 3 4 2 2 5 10 10 8 6 6
32 32 31 29 20 17 18 17 13 9 8 8 8 11 6 4 7 5 8 2 6 7 5 1 4 3 1 4 4 4 0 1 5 8 8 8 5 5 5 5 7 9 8 8 11
32 31 31 29 26 20 19 17 12 8 7 7 8 9 3 3 5 9 8 4 8 6 6 5 1 3 1 3 2 3 3 1 3 3 2 7 3 4 5 6 8 9 8 9 12
32 32 31 30 27 26 20 16 9 7 5 5 5 7 2 11 10 7 5 5 4 4 3 6 5 7 3 7 4 2 4 5 5 4 5 6 3 7 8 7 9 9 8 10 10
33 33 32 31 30 28 21 15 8 5 6 7 6 3 6 10 9 16 8 10 10 5 4 4 7 2 1 2 8 4 4 2 8 6 5 8 7 8 7 11 10 10 11 11 7
34 34 33 31 31 31 22 12 8 6 6 6 5 1 9 8 9 17 14 9 6 13 8 5 2 2 5 3 5 4 3 6 9 5 5 5 7 8 9 9 9 7 10 11 8
36 35 35 32 31 33 20 12 8 8 3 5 5 4 6 5 8 14 9 6 2 3 6 3 3 1 4 4 5 5 4 3 2 1 3 4 6 7 8 7 9 9 9 11 10
36 36 36 33 31 29 18 4 6 4 2 7 8 7 7 6 12 8 9 5 2 3 3 4 3 7 12 9 6 4 1 2 4 5 2 6 7 9 10 6 6 7 9 10 10
38 37 37 36 33 14 13 2 6 4 9 15 17 17 26 11 4 5 9 5 4 6 2 4 7 14 9 7 8 4 2 4 6 3 2 5 11 9 9 7 9 10 13 12 8
40 39 38 38 23 5 21 6 23 12 4 10 8 8 10 10 10 9 10 6 5 3 6 7 8 5 7 7 6 4 4 4 7 3 3 5 10 6 5 4 6 7 17 14 16
39 39 40 41 5 24 12 26 24 9 4 7 3 5 8 4 6 14 16 7 4 5 5 7 7 6 6 7 6 4 4 1 4 4 3 4 6 6 8 14 8 9 14 15 10
39 40 42 22 15 9 14 29 24 3 3 4 1 11 9 8 4 5 5 4 6 4 3 8 11 6 6 6 7 6 6 4 2 1 2 3 2 8 5 7 10 8 12 9 9
40 41 39 10 13 12 22 27 6 5 5 4 3 2 6 8 3 3 4 5 3 3 4 8 5 4 5 1 1 4 5 7 5 3 2 6 8 6 3 5 3 5 9 11 9
40 42 26 13 6 16 21 6 5 3 5 2 9 8 8 3 6 7 7 6 6 2 4 3 4 5 6 5 0 6 6 3 4 2 6 3 4 9 11 8 9 14 13 9 8
40 41 18 23 26 19 11 5 3 4 6 6 11 8 3 5 5 6 1 5 6 4 3 4 7 5 4 9 11 7 9 6 7 3 4 6 6 5 6 5 14 13 9 7 8
37 36 14 32 28 3 5 3 6 4 4 11 15 6 3 11 3 5 6 10 10 13 10 7 8 7 2 4 10 4 5 8 3 1 1 4 5 4 2 6 7 8 8 8 7
28 19 9 31 24 7 4 5 4 7 13 14 7 6 11 15 9 6 4 5 4 8 13 8 11 5 4 5 1 5 5 4 2 3 5 5 5 5 5 4 4 6 8 9 7
9 5 3 30 18 5 3 6 5 12 10 5 13 12 6 6 9 6 7 13 11 3 6 4 5 6 6 6 9 2 2 3 4 5 5 1 6 4 7 9 9 8 9 8 8
7 3 23 23 4 1 1 4 10 14 8 6 4 6 5 11 6 7 9 5 15 8 6 6 5 5 11 4 9 8 9 7 5 5 4 4 6 4 8 8 6 7 6 3 7
3 4 9 17 2 3 6 9 5 9 8 6 4 5 3 3 7 3 9 10 14 10 5 4 2 1 8 6 3 5 6 6 4 4 9 5 6 2 6 5 8 7 6 7 7
3 4 4 4 1 3 6 5 5 10 9 6 8 5 4 8 5 8 15 10 16 14 20 12 7 9 13 9 5 4 7 14 12 5 9 16 10 6 9 10 12 1 8 8 7
0 4 0 4 7 11 10 6 14 11 5 7 6 8 9 8 13 13 6 13 11 9 11 7 7 8 9 10 8 7 6 7 10 15 10 12 17 13 16 18 20 8 7 8 7
1 3 5 4 8 8 4 5 17 16 15 14 11 13 10 7 8 15 8 4 4 5 7 6 6 7 18 14 12 16 7 9 14 11 12 13 22 8 14 6 7 8 7 7 5
6 7 0 5 4 5 6 14 17 15 9 14 15 12 12 12 8 17 15 13 9 5 4 3 4 6 12 15 12 10 21 19 14 16 10 15 12 5 4 8 7 7 8 7 6
Wind_Direction
16 9 9 359 355 354 355 355 348 348 338 347 349 357 360 351 344 308 269 254 257 278 316 322 308 318 280 266 225 100 60 246 241 91 150 284 97 0 22 80 44 89 120 155 78
19 18 13 5 356 355 355 355 351 339 333 331 328 339 348 343 331 265 257 257 206 271 328 359 320 355 312 238 300 97 110 220 195 149 123 55 85 135 75 105 66 94 92 94 78
19 18 17 9 1 354 354 353 349 338 329 323 327 332 336 331 336 250 252 178 190 292 315 303 282 233 205 75 252 154 179 184 205 133 120 66 68 358 122 29 184 153 133 88 77
16 17 16 13 6 357 350 347 344 333 322 320 327 331 332 344 241 247 179 149 205 290 304 326 349 340 254 265 250 159 198 163 186 151 117 137 148 336 143 243 167 154 148 123 92
12 12 14 12 5 357 347 336 331 325 318 317 329 339 349 5 254 239 169 208 288 313 291 31 43 23 12 313 333 149 175 198 173 164 169 136 171 203 271 152 187 139 113 111 98
7 7 7 9 6 354 348 340 320 311 311 312 330 343 7 295 205 167 194 254 298 311 357 55 16 244 294 306 83 316 146 270 268 199 209 147 223 134 250 135 153 128 149 116 129
2 1 0 0 0 357 346 345 328 295 300 308 332 350 328 243 197 187 190 247 231 271 2 16 41 56 331 331 326 340 358 351 258 228 209 131 297 221 238 184 169 169 129 128 131
360 357 355 353 353 351 346 342 331 283 288 305 317 321 253 270 286 202 215 255 248 242 258 318 358 37 159 301 358 5 53 35 277 170 229 122 250 252 274 154 185 189 147 139 148
357 354 351 348 348 345 342 332 316 280 280 284 310 167 270 309 221 213 225 240 334 227 250 242 65 217 357 72 6 349 230 206 308 223 138 157 235 242 182 175 212 203 157 143 139
355 352 348 345 345 341 339 323 290 279 286 272 257 18 274 244 218 230 210 221 98 355 4 138 59 1 15 89 213 213 223 221 253 50 119 217 250 274 243 200 206 190 171 156 155
353 351 347 343 342 340 345 1 15 9 195 198 201 215 287 242 166 174 180 152 97 47 220 285 120 225 232 208 212 237 198 259 250 263 223 214 248 255 261 250 227 183 183 171 165
354 352 347 341 340 352 1 47 236 282 293 225 230 224 247 251 298 253 186 146 155 231 319 341 234 241 236 216 200 192 218 260 292 230 170 289 283 240 215 219 207 198 182 177 166
352 351 348 341 340 1 330 294 341 309 298 291 218 222 208 176 230 227 145 167 181 222 254 204 249 239 218 209 198 219 194 222 231 319 354 335 287 271 268 232 227 212 188 179 170
350 350 348 340 5 333 311 337 345 315 32 283 241 264 154 156 275 199 175 149 200 209 259 251 284 279 268 220 170 228 219 93 44 46 233 77 283 273 279 282 254 226 175 169 164
348 349 344 339 310 313 324 338 338 34 352 266 271 175 144 156 175 7 122 71 173 230 75 253 311 349 332 225 174 226 115 111 113 48 346 188 295 274 264 273 251 200 164 155 154
346 345 341 338 304 322 338 333 344 47 262 330 43 228 119 201 186 112 84 61 138 177 204 235 265 236 233 50 94 125 66 35 50 101 303 226 179 271 215 215 206 140 142 142 149
344 344 343 329 281 328 335 7 36 154 318 102 25 350 323 236 191 156 169 171 178 147 259 292 229 241 175 204 156 85 65 349 328 349 232 275 170 242 304 303 177 158 143 154 132
344 343 6 7 344 312 345 52 194 264 282 357 357 324 218 338 335 336 249 199 263 179 175 196 309 185 179 190 196 178 149 157 228 217 269 300 247 279 332 35 92 110 135 128 135
346 345 5 9 5 28 72 79 210 240 350 353 336 332 354 338 324 311 230 230 200 186 186 194 247 233 173 181 160 183 157 177 100 298 20 247 295 319 324 66 91 121 135 168 165
339 325 296 3 355 32 81 219 243 322 323 326 318 291 308 319 310 319 290 284 276 186 212 228 259 213 168 100 65 142 166 81 7 216 248 277 256 227 196 180 160 170 189 209 196
354 354 317 353 347 52 184 230 298 291 294 315 293 287 315 4 331 302 256 295 279 226 155 161 165 275 131 182 169 143 177 90 129 149 182 244 267 224 195 179 181 204 218 202 184
360 344 307 344 21 8 235 320 333 316 341 1 353 2 24 336 293 300 282 273 330 287 232 187 159 216 216 224 181 180 182 150 140 231 221 166 260 258 180 186 180 234 269 226 155
333 257 316 1 318 341 316 339 303 12 351 351 308 16 334 291 314 319 304 334 334 341 296 202 204 43 326 337 318 199 186 174 128 104 212 181 252 177 174 239 251 241 232 147 141
352 329 322 19 39 26 2 293 333 334 310 346 287 297 353 306 232 285 306 307 346 329 316 242 186 176 229 227 184 200 199 202 190 183 219 229 240 256 265 271 289 294 142 146 150
59 265 191 297 327 331 316 290 297 305 249 360 308 326 313 295 305 286 269 311 304 334 343 21 226 193 212 193 213 200 198 205 202 226 200 228 231 223 241 252 257 152 153 145 167
306 1 354 290 280 261 248 258 284 297 295 294 291 319 313 278 264 297 312 285 250 334 351 4 303 260 236 222 212 243 247 240 242 242 260 248 260 232 245 245 149 156 157 163 177
333 329 202 244 255 295 257 270 279 300 285 307 307 298 295 290 303 291 270 254 230 199 284 305 291 332 255 233 228 241 237 242 251 252 233 245 246 179 134 135 155 168 169 175 186